{"data":{"norad_id":28378,"epoch":"2026-05-25T03:12:55.852128Z","epoch_age_seconds":73675,"freshness":"FRESH","line1":"1 28378U 04027A   26145.13397977 -.00000051  00000+0  00000+0 0  9990","line2":"2 28378   3.2296  79.7461 0004449 351.3346 108.7417  1.00271812 41030","mean_motion":1.00271812,"eccentricity":0.0004449,"inclination_deg":3.2296,"raan_deg":79.7461,"arg_perigee_deg":351.3346,"mean_anomaly_deg":108.7417,"bstar":0,"rev_number":4103,"period_min":1436.0965173343,"perigee_km":35767.82830623,"apogee_km":35805.346477994,"semimajor_km":42164.724392112,"source":"CELESTRAK","updated_at":"2026-05-25T13:38:13.818181Z"}}